[[{"header":{"parameterUnit":"m.s-1","parameterCategory":1,"la1":30.2991,"la2":30.254,"lo1":-89.0895,"lo2":-89.0444,"dy":0.0017,"dx":0.0017,"nx":28,"ny":28,"refTime":"2024-12-03T09:00:00:Z","depth":0,"parameterNumber":2,"parameterNumberName":"U-component_of_WINDS"},"data":[0,0,0,0,0,0,0,0,0,0,0,0,0,0,0,0,0,0,0,0,0,0,0,0,0,0,0,0,0,0,0,0,0,0,0,0,0,0,0,0,0,0,0,0,0,0,0,0,0,0,0,0,0,0,0,0,0,0,0.1078,0.1078,0,0.1046,0.1045,0.1045,0.1013,0.1013,0.1013,0.1012,0.0979,0.0978,0.0978,0,0,0,0,0,0,0,0,0,0,0,0,0,0.1112,0.1112,0.1078,0.1078,0.1078,0.1046,0.1045,0.1045,0.1013,0.1013,0.1012,0.1012,0.0979,0.0978,0.0978,0,0,0,0,0,0,0,0,0,0,0,0,0,0.109,0.1111,0.1078,0.1058,0.1056,0.1046,0.1045,0.1045,0.1014,0.1013,0.1012,0.1012,0.0979,0.0978,0.0978,0.0985,0,0,0.0975,0.0975,0,0,0,0,0,0,0,0,0.1092,0.1089,0.1061,0.1059,0.1057,0.1033,0.1045,0.1025,0.1014,0.103,0.1012,0.1011,0.0997,0.0995,0.099,0.0984,0.0982,0.0975,0.0975,0.0974,0.0974,0,0,0,0,0,0,0,0.1093,0.109,0.1065,0.1061,0.1058,0.105,0.1046,0.1041,0.1017,0.1028,0.1026,0.1022,0.0996,0.0991,0.0989,0.0982,0.0975,0.0975,0.0974,0.0974,0.0978,0.0978,0,0,0,0,0,0,0.1098,0.1092,0.1066,0.1064,0.1073,0.105,0.1046,0.1041,0.1017,0.1013,0.1023,0.1021,0.0993,0.099,0.0988,0.0994,0.0974,0.0974,0.0973,0.0977,0.0978,0.0979,0,0,0,0,0,0,0.1099,0.1096,0.1068,0.1077,0.1073,0.105,0.1045,0.1041,0.1036,0.1013,0.1009,0.1022,0.0992,0.0989,0.0986,0.0993,0.0973,0.0973,0.0977,0.0978,0.0978,0.1007,0,0,0,0,0,0,0.11,0.1096,0.1099,0.1078,0.1073,0.1067,0.1046,0.1041,0.1035,0.1032,0.1012,0.1008,0.0991,0.0987,0.0985,0.0991,0.0972,0.0976,0.0977,0.0978,0.1006,0.1009,0.1012,0,0,0,0,0,0.1101,0.1109,0.11,0.1097,0.1076,0.1067,0.1064,0.1045,0.1036,0.1038,0.1023,0.1008,0.0992,0.0987,0.0984,0.099,0.0975,0.0977,0.0978,0.1004,0.1008,0.1012,0,0,0,0,0,0,0.1133,0.1106,0.1095,0.1097,0.1084,0.1062,0.1065,0.1051,0.1041,0.1039,0.1016,0.1011,0.101,0.1,0.0995,0.0996,0.0982,0.0982,0.1002,0.1006,0.1009,0.1012,0.0972,0,0,0,0,0,0.114,0.1135,0.1112,0.1115,0.1109,0.1088,0.1084,0.107,0.1056,0.1051,0.1036,0.1023,0.1015,0.101,0.1001,0.1004,0.0998,0.1007,0.101,0.1013,0.1013,0.1012,0.1016,0.0983,0.0983,0.0983,0,0,0.1154,0.1139,0.1138,0.1121,0.111,0.1105,0.1084,0.108,0.1076,0.105,0.1046,0.1034,0.1018,0.1018,0.1017,0.1009,0.1021,0.1014,0.1016,0.1016,0.1014,0.1017,0.102,0.0984,0.0984,0.0983,0,0,0.1178,0.1167,0.1168,0.1157,0.114,0.1125,0.1126,0.1105,0.1096,0.1091,0.1072,0.1066,0.1053,0.1042,0.1035,0.1053,0.1038,0.1051,0.1067,0.1066,0.1069,0.1071,0.1077,0.1079,0.1052,0.1052,0.1052,0,0.1198,0.119,0.117,0.1166,0.1159,0.1136,0.1136,0.1126,0.1108,0.1103,0.1095,0.1076,0.1064,0.106,0.1064,0.1059,0.1058,0.1053,0.107,0.1072,0.1074,0.1079,0.1081,0.1053,0.1053,0.1053,0.1053,0,0.1215,0.121,0.1213,0.1195,0.1188,0.1186,0.1165,0.116,0.1147,0.1133,0.1128,0.1112,0.1099,0.1097,0.1085,0.1091,0.1086,0.1075,0.106,0.1079,0.1083,0.1085,0.1055,0.1055,0.1054,0.1054,0,0,0.1259,0.1229,0.123,0.1221,0.12,0.1195,0.1192,0.1179,0.1175,0.1163,0.1159,0.1148,0.1136,0.1128,0.1113,0.1113,0.1127,0.1101,0.11,0.1105,0.1131,0.114,0.1142,0.1117,0.1117,0.1118,0.1132,0,0.1278,0.1271,0.1252,0.1251,0.1245,0.1222,0.1219,0.1206,0.1193,0.1185,0.117,0.1162,0.1148,0.1143,0.1141,0.1126,0.1132,0.1124,0.1113,0.1112,0.1117,0.1145,0.1154,0.1169,0.1134,0.1134,0.1134,0,0.13,0.1289,0.1287,0.1265,0.1262,0.126,0.1246,0.1239,0.1223,0.1213,0.1204,0.1187,0.1182,0.1168,0.116,0.1155,0.1149,0.1141,0.1141,0.1139,0.1124,0.1143,0.1173,0.1175,0.1137,0.1137,0.1136,0,0.1331,0.1315,0.1311,0.1305,0.128,0.1278,0.1268,0.1251,0.1244,0.1232,0.1227,0.1214,0.1207,0.1197,0.1177,0.1169,0.117,0.1156,0.1161,0.1162,0.1163,0.1163,0.1192,0.116,0.116,0.116,0.116,0,0.1354,0.1354,0.1325,0.1323,0.1321,0.1299,0.1298,0.1285,0.127,0.1264,0.1244,0.1239,0.1213,0.1205,0.119,0.1184,0.1181,0.1173,0.1169,0.1174,0.1175,0.117,0.1168,0.116,0.116,0.116,0.116,0,0.1388,0.1368,0.1363,0.1339,0.1333,0.1333,0.1313,0.1309,0.1294,0.1287,0.1284,0.1261,0.125,0.1229,0.1213,0.1203,0.12,0.1193,0.1206,0.1203,0.1209,0.1209,0.1236,0.1237,0.1205,0.1206,0.1206,0,0.1404,0.1403,0.1379,0.1374,0.1364,0.1356,0.1348,0.1326,0.1319,0.13,0.1299,0.1286,0.1275,0.1258,0.124,0.1226,0.1219,0.1229,0.1217,0.1222,0.1218,0.1218,0.1217,0.1232,0.1232,0.1233,0.1233,0,0.1434,0.1424,0.1414,0.1401,0.1393,0.1381,0.1368,0.1365,0.134,0.1333,0.1321,0.1313,0.1295,0.1283,0.1267,0.1255,0.1239,0.1237,0.1237,0.1243,0.125,0.1245,0.1213,0.1236,0.1236,0.1236,0.1235,0.1235,0.1458,0.1456,0.1438,0.1428,0.1416,0.1404,0.14,0.1384,0.1374,0.1358,0.1346,0.1335,0.1317,0.1294,0.1283,0.1274,0.1267,0.1268,0.1268,0.1268,0.127,0.1252,0.1271,0.1271,0.1271,0.1271,0.1271,0,0.1486,0.1474,0.1465,0.1447,0.1439,0.1425,0.141,0.1403,0.1394,0.1379,0.1368,0.1355,0.1342,0.1322,0.1308,0.1304,0.1296,0.1301,0.13,0.1298,0.1278,0.1279,0.1307,0.1307,0.1307,0.1307,0.1307,0.1307,0.15,0.1495,0.1483,0.1471,0.1458,0.1448,0.144,0.1429,0.1417,0.1402,0.1392,0.1379,0.1361,0.1345,0.1333,0.1327,0.1322,0.1329,0.1321,0.1303,0.1299,0.1296,0.1297,0.1328,0.1328,0.1341,0.1341,0.1342]},{"header":{"parameterUnit":"m.s-1","parameterCategory":1,"la1":30.2991,"la2":30.254,"lo1":-89.0895,"lo2":-89.0444,"dy":0.0017,"dx":0.0017,"nx":28,"ny":28,"refTime":"2024-12-03T09:00:00:Z","depth":0,"parameterNumber":3,"parameterNumberName":"V-component_of_WINDS"},"data":[0,0,0,0,0,0,0,0,0,0,0,0,0,0,0,0,0,0,0,0,0,0,0,0,0,0,0,0,0,0,0,0,0,0,0,0,0,0,0,0,0,0,0,0,0,0,0,0,0,0,0,0,0,0,0,0,0,0,5.8827,5.8828,0,5.8857,5.8857,5.8857,5.8782,5.878,5.8777,5.8775,5.8802,5.8805,5.8807,0,0,0,0,0,0,0,0,0,0,0,0,0,5.8701,5.8704,5.8827,5.8828,5.8828,5.8857,5.8857,5.8858,5.8782,5.878,5.8777,5.8774,5.8801,5.8804,5.8808,0,0,0,0,0,0,0,0,0,0,0,0,0,5.8746,5.8705,5.8827,5.8794,5.8791,5.8857,5.8857,5.8858,5.8783,5.878,5.8776,5.8773,5.88,5.8804,5.8808,5.8906,0,0,5.8822,5.8823,0,0,0,0,0,0,0,0,5.8743,5.875,5.8799,5.8796,5.8794,5.8812,5.8822,5.8874,5.8784,5.8786,5.8775,5.8771,5.8808,5.8811,5.8824,5.8907,5.8908,5.8822,5.8825,5.8826,5.8828,0,0,0,0,0,0,0,5.874,5.8749,5.8839,5.8799,5.8796,5.8776,5.8779,5.8832,5.8816,5.8786,5.878,5.8785,5.8806,5.882,5.8825,5.8909,5.8822,5.8826,5.8828,5.883,5.907,5.9074,0,0,0,0,0,0,5.8742,5.8747,5.8838,5.884,5.8759,5.8781,5.8784,5.881,5.8816,5.8813,5.8788,5.8781,5.8815,5.882,5.8825,5.8938,5.8826,5.883,5.8833,5.9067,5.9071,5.9075,0,0,0,0,0,0,5.874,5.8751,5.8837,5.8792,5.8801,5.8787,5.8817,5.8812,5.8827,5.8817,5.8814,5.8806,5.8812,5.8819,5.8886,5.8938,5.8832,5.8836,5.9062,5.9068,5.9073,5.9166,0,0,0,0,0,0,5.8736,5.8751,5.8789,5.8793,5.8804,5.8899,5.882,5.8815,5.8835,5.8827,5.8833,5.8831,5.881,5.888,5.889,5.8942,5.884,5.9057,5.9065,5.9071,5.9158,5.9174,5.9188,0,0,0,0,0,5.8732,5.8813,5.8791,5.8802,5.8851,5.8902,5.8908,5.8883,5.884,5.8877,5.887,5.8831,5.8931,5.8888,5.8899,5.8952,5.9054,5.9063,5.9071,5.9152,5.9171,5.9188,0,0,0,0,0,0,5.8814,5.8813,5.8789,5.8874,5.8889,5.8889,5.8935,5.8904,5.8931,5.8922,5.8888,5.8891,5.8963,5.8965,5.8916,5.9046,5.8985,5.8996,5.9043,5.9061,5.9076,5.9073,5.8843,0,0,0,0,0,5.8842,5.8885,5.8881,5.8957,5.8965,5.8949,5.897,5.895,5.8963,5.8969,5.8967,5.8981,5.9015,5.9038,5.9069,5.9159,5.9158,5.9201,5.9216,5.9228,5.9238,5.9283,5.9302,5.9103,5.9103,5.9103,0,0,5.89,5.8905,5.8934,5.8973,5.8982,5.9025,5.8955,5.9004,5.9035,5.8976,5.9039,5.9038,5.9051,5.9129,5.9164,5.9133,5.9292,5.9239,5.9249,5.9251,5.9294,5.9312,5.9329,5.9109,5.9108,5.9107,0,0,5.9028,5.9037,5.91,5.911,5.9125,5.9114,5.9129,5.9135,5.9132,5.9195,5.9151,5.9187,5.9248,5.9258,5.9271,5.9402,5.9366,5.9413,5.949,5.9535,5.955,5.9564,5.9609,5.9626,5.9423,5.9423,5.9424,0,5.9098,5.9162,5.9136,5.9188,5.9205,5.9155,5.9217,5.9228,5.9252,5.9265,5.923,5.9304,5.9309,5.9388,5.942,5.9434,5.9448,5.9412,5.9551,5.9564,5.9576,5.9619,5.9636,5.9429,5.9428,5.9428,5.9427,0,5.9246,5.9292,5.9341,5.9366,5.9389,5.9446,5.9427,5.9453,5.9431,5.9423,5.9487,5.9491,5.9522,5.9539,5.9517,5.9615,5.9595,5.9556,5.9494,5.9601,5.964,5.9657,5.9437,5.9435,5.9433,5.9432,0,0,5.9426,5.9436,5.9454,5.9464,5.9477,5.951,5.9564,5.9595,5.9617,5.9636,5.9679,5.9731,5.9695,5.971,5.9689,5.9728,5.983,5.9684,5.9684,5.971,5.9935,5.9963,5.9983,5.9807,5.981,5.9812,5.9933,0,5.955,5.9644,5.9621,5.9713,5.9754,5.9706,5.9753,5.9765,5.9759,5.9791,5.9783,5.982,5.9771,5.9779,5.9816,5.981,5.9874,5.9801,5.9844,5.9846,5.9841,6.0003,6.0033,6.0148,5.9949,5.9952,5.9953,0,5.9708,5.9733,5.983,5.9834,5.985,5.9893,5.9918,5.995,5.9962,5.9955,5.9972,5.9943,5.9994,5.9933,6.0002,5.9953,5.9969,5.9968,5.9972,5.9974,5.9905,6.0008,6.0184,6.02,5.9978,5.9976,5.9974,0,5.9827,5.9885,5.9949,5.996,5.9967,5.9998,6.0002,6.0011,6.0031,6.0053,6.0065,6.0093,6.0107,6.0129,6.0107,6.0065,6.018,6.0117,6.0173,6.0174,6.0198,6.0197,6.0378,6.0212,6.0212,6.0212,6.0211,0,5.9968,6.0028,6.0003,6.0042,6.0108,6.0081,6.0146,6.0144,6.0153,6.019,6.0151,6.0186,6.0157,6.0189,6.0173,6.0232,6.0239,6.0233,6.0228,6.0236,6.0237,6.0245,6.0236,6.0216,6.0215,6.0214,6.0214,0,6.0111,6.0097,6.0164,6.0166,6.0168,6.0216,6.0216,6.0252,6.0243,6.0291,6.03,6.0286,6.0322,6.0304,6.0341,6.033,6.0406,6.039,6.0402,6.0397,6.0454,6.0449,6.0646,6.067,6.0491,6.0492,6.0494,0,6.0201,6.0246,6.0253,6.0276,6.0283,6.032,6.034,6.0315,6.0337,6.0353,6.0387,6.042,6.0445,6.0505,6.0497,6.0525,6.0509,6.0576,6.0512,6.0519,6.0507,6.0504,6.0508,6.0588,6.059,6.0592,6.0593,0,6.0362,6.0352,6.0383,6.0411,6.0436,6.0457,6.0474,6.0494,6.0469,6.0496,6.0533,6.0552,6.059,6.0623,6.0647,6.065,6.0617,6.0614,6.0628,6.0636,6.064,6.0636,6.0435,6.0609,6.0607,6.0606,6.0605,6.0605,6.048,6.0517,6.0528,6.0562,6.0573,6.059,6.0623,6.0619,6.0649,6.0679,6.0662,6.0705,6.0714,6.0743,6.0751,6.0783,6.0756,6.0777,6.0782,6.0787,6.0794,6.0636,6.0787,6.0787,6.0786,6.0786,6.0786,0,6.0636,6.0641,6.0673,6.0699,6.0726,6.0694,6.0711,6.0736,6.0774,6.0786,6.0812,6.0853,6.0885,6.088,6.0908,6.0935,6.092,6.0943,6.0939,6.094,6.0817,6.0801,6.0954,6.0954,6.0954,6.0954,6.0954,6.0954,6.0721,6.0782,6.0774,6.0839,6.0843,6.0885,6.0897,6.0912,6.0921,6.097,6.0996,6.0993,6.0997,6.1025,6.1052,6.105,6.1061,6.1089,6.1081,6.0966,6.0949,6.0933,6.0918,6.1092,6.1093,6.1201,6.1202,6.1203]}]]